This demonstration page uses our WeatherBlox Daily Observations layout. Learn more.

41.55636, -103.73856

Hourly Observations for May 23, 2017

Temp ( °F °C ) Dew Point ( °F °C ) Humidity (%) Winds ( mph kmh ) Pressure ( in mb ) Visibility ( mi km ) Precip ( " mm )
12:53 am 00:53 Clear 40 4.4 36 2.2 86 86 WNW 7 11 30.17 1022 10 16.0934 0 0
1:53 am 01:53 Clear 38 3.3 35 1.7 89 89 WNW 3 6 30.18 1022 10 16.0934 0 0
2:53 am 02:53 Clear 36 2.2 33 0.6 89 89 NW 6 9 30.17 1022 10 16.0934 0 0
3:53 am 03:53 Clear 38 3.3 35 1.7 89 89 WNW 8 13 30.16 1021 10 16.0934 0 0
4:53 am 04:53 Clear 36 2.2 33 0.6 89 89 W 5 7 30.16 1021 10 16.0934 0 0
5:53 am 05:53 Cloudy 38 3.3 35 1.7 89 89 W 7 11 30.15 1021 10 16.0934 0 0
6:53 am 06:53 Cloudy 42 5.6 38 3.3 85 85 W 8 13 30.16 1021 10 16.0934 0 0
7:53 am 07:53 Cloudy 46 7.8 40 4.4 79 79 W 9 15 30.16 1021 10 16.0934 0 0
8:53 am 08:53 Cloudy 52 11.1 41 5 66 66 WNW 12 19 30.15 1021 10 16.0934 0 0
9:53 am 09:53 Cloudy 57 13.9 36 2.2 45 45 NNW 22 35 30.13 1020 10 16.0934 0 0
10:53 am 10:53 Cloudy 55 12.8 35 1.7 47 47 N 17 28 30.13 1020 10 16.0934 0 0
11:53 am 11:53 Cloudy 59 15 35 1.7 41 41 NNW 17 28 30.09 1019 10 16.0934 0 0
12:53 pm 12:53 Cloudy 59 15 32 0 36 36 NNW 18 30 30.08 1019 10 16.0934 0 0
1:53 pm 13:53 Cloudy 62 16.7 32 0 32 32 NNW 21 33 30.06 1018 10 16.0934 0 0
2:53 pm 14:53 Mostly Cloudy 63 17.2 33 0.6 33 33 NNW 22 35 30.05 1018 10 16.0934 0 0
3:53 pm 15:53 Mostly Cloudy 66 18.9 33 0.6 29 29 N 18 30 30.02 1017 10 16.0934 0 0
4:53 pm 16:53 Mostly Cloudy 63 17.2 31 -0.6 30 30 N 21 33 30.01 1016 10 16.0934 0 0
5:53 pm 17:53 Partly Cloudy 63 17.2 37 2.8 38 38 N 12 19 30 1016 10 16.0934 0 0
6:53 pm 18:53 Sunny 61 16.1 36 2.2 39 39 N 13 20 30 1016 10 16.0934 0 0
7:53 pm 19:53 Sunny 54 12.2 39 3.9 57 57 NE 8 13 30.01 1016 10 16.0934 0 0
8:53 pm 20:53 Clear 48 8.9 39 3.9 71 71 NNE 6 9 30.01 1016 10 16.0934 0 0
9:53 pm 21:53 Clear 47 8.3 38 3.3 71 71 Calm 30 1016 10 16.0934 0 0
10:53 pm 22:53 Clear 46 7.8 37 2.8 71 71 Calm 29.99 1016 10 16.0934 0 0
11:53 pm 23:53 Clear 44 6.7 37 2.8 76 76 SE 3 6 29.96 1015 10 16.0934 0 0

Powered by AerisWeather